This is the latest recevied weather packets stored in our database for station/object AI5BL. If no packets are shown the sender has not sent any weather packets the latest 10 day(s).
| Time | Temp. | Humidity | Pressure | Rain* | Wind** | Luminosity | Snow |
|---|---|---|---|---|---|---|---|
| 1788365865 | 32.78° C | 61% | 1020.9 hPa | 0 mm | - | 160 W/m² | - |
| 1788365561 | 32.78° C | 61% | 1021 hPa | 0 mm | - | 214 W/m² | - |
| 1788365257 | 33.33° C | 62% | 1020.7 hPa | 0 mm | - | 164 W/m² | - |
| 1788364952 | 33.89° C | 58% | 1020.9 hPa | 0 mm | - | 708 W/m² | - |
| 1788364653 | 32.78° C | 61% | 1020.8 hPa | 0 mm | - | 716 W/m² | - |
| 1788364349 | 31.67° C | 69% | 1020.9 hPa | 0 mm | - | 755 W/m² | - |
| 1788364044 | 31.67° C | 68% | 1021.2 hPa | 0 mm | - | 233 W/m² | - |
| 1788363744 | 31.11° C | 71% | 1021.1 hPa | 0 mm | - | 184 W/m² | - |
| 1788363443 | 31.11° C | 70% | 1021.2 hPa | 0 mm | - | 134 W/m² | - |
| 1788363138 | 31.67° C | 70% | 1021.3 hPa | 0 mm | - | 148 W/m² | - |
| 1788362834 | 31.67° C | 68% | 1021.1 hPa | 0 mm | - | 143 W/m² | - |
| 1788362529 | 33.33° C | 62% | 1021 hPa | 0 mm | - | 130 W/m² | - |
| 1788362225 | 33.33° C | 63% | 1021.1 hPa | 0 mm | - | 544 W/m² | - |
| 1788361920 | 32.78° C | 60% | 1021 hPa | 0 mm | - | 524 W/m² | - |
| 1788361615 | 32.78° C | 69% | 1021 hPa | 0 mm | - | 505 W/m² | - |
| 1788361311 | 33.89° C | 65% | 1021 hPa | 0 mm | - | 481 W/m² | - |
| 1788361010 | 33.89° C | 60% | 1020.8 hPa | 0 mm | - | 463 W/m² | - |
| 1788360709 | 31.67° C | 64% | 1020.9 hPa | 0 mm | - | 453 W/m² | - |
| 1788360425 | 32.78° C | 61% | 1021 hPa | 0 mm | - | 435 W/m² | - |
| 1788360102 | 31.11° C | 66% | 1021.1 hPa | 0 mm | - | 418 W/m² | - |
| 1788359802 | 31.67° C | 67% | 1021 hPa | 0 mm | - | 403 W/m² | - |
| 1788359497 | 31.67° C | 77% | 1020.9 hPa | 0 mm | - | 386 W/m² | - |
| 1788359193 | 32.22° C | 67% | 1021 hPa | 0 mm | - | 369 W/m² | - |
| 1788358907 | 32.22° C | 68% | 1020.8 hPa | 0 mm | - | 354 W/m² | - |
| 1788358588 | 32.22° C | 72% | 1020.9 hPa | 0 mm | - | 338 W/m² | - |
* Rain latest hour (hover to see other rain measurements)
** Current wind speed in m/s (hover to see current wind gust speed)